Location: Dvur Kralove nad Labem
(50.4330°N, 15.8170°E)
Time: 15:02:35
(UTC+02:00)

ISS - Pass Details

Date: 19 May 2018
Orbit: 402 x 407 km, 51.6° (Epoch: 24 May)

Event Time Altitude Azimuth Distance (km) Brightness Sun altitude
Exits shadow 02:30:13 - 280° (W) 1,612 -0.9 -16.7°
Reaches altitude 10° 02:30:35 10° 280° (W) 1,458 -1.2 -16.6°
Maximum altitude 02:33:51 71° 5° (N) 429 -3.6 -16.4°
Drops below altitude 10° 02:37:06 10° 91° (E) 1,457 -0.7 -16.2°
Sets 02:39:11 0° 93° (E) 2,315 0.3 -16.1°
